星链-2739 (STARLINK-2739 )

导读

STARLINK-2739是美国太空探索技术公司(SpaceX)旗下星链(Starlink)低轨卫星互联网星座的组网卫星,于北京时间2021年5月26日由猎鹰九号火箭发射升空。该卫星运行于近地轨道,是星链全球宽带互联网组网建设的组成部分,旨在为全球偏远、欠发达地区提供高速可靠的互联网接入服务,目前仍在轨正常工作。

Basic Information
目录编号:
48639
目录名称:
STARLINK-2739
国际标识:
2021-044B
轨道中心:
EARTH
卫星名称:
星链-2739
卫星全名:
星链-2739 (STARLINK-2739 )
卫星状态:
在轨 (已飞行1927 天)
发射日期:
2021-05-26 UTC
国别 :
美国 (US)
星等 :
--
Orbit Information
数据来源 国际轨道数据 AOE轨道数据
星历时间 2026-09-04T14:02:07+0800
6小时前
查看轨道信息
2026-08-31T08:00:00+0800
4天前
查看轨道信息
半长轴 6848.899km 6848.823km
偏心率 0.000121 0.0001094
轨道倾角 53.161° 53.160°
近地点辐角 74.222° 67.433°
升交点赤经 2.884° 22.677°
平近点角 285.892° 236.559°
近地点 469.933km 469.936km
远地点 471.591km 471.436km
周期 94.014分钟 94.012分钟
每日圈数 15.316927 15.317183
Detailed Information
固有亮度:
5
最大亮度:
2.5
卫星平台:
Starlink V1.0
覆盖范围:
全球
运营商:
太空探索技术公司
运营商所在国:
美国
制造商(研发单位):
太空探索技术公司
制造商所在国:
美国
使用方式:
暂无
Satellite Introduction
星链(Starlink)计划是由太空探索技术公司(SpaceX)提出的一个巨型低轨卫星互联网星座项目,计划在2019年至2024年间在太空搭建由约1.2万颗卫星组成的“星链”网络,其中1584颗将部署在地球上空550千米处的近地轨道,并从2020年开始工作。该卫星仍在工作。
2D Orbit Map
3D Orbit Map
Orbit Altitude Analysis Chart
Orbit Inclination Analysis Chart
Orbit Comprehensive Analysis Chart
View Comprehensive Chart
Conjunction Data List
Event ID Objects TCA Miss Dist (km) Collision Risk Probability Collision Risk Index (CRI) Action
CDM_260906-071004-863906-443121
2026-09-06T
07:10:56+0000
1.128 km
极远距离
5.747019E-6 低风险 0.5
CDM_260904-203904-863906-323722
2026-09-04T
20:39:33+0000
2.011 km
极远距离
2.73781E-6 低风险 0.44
CDM_260906-105804-863906-821621
2026-09-06T
10:58:46+0000
2.791 km
极远距离
1.401677E-6 低风险 0.38
CDM_260904-201504-863906-802521
2026-09-04T
20:15:17+0000
2.978 km
极远距离
1.343785E-6 低风险 0.38